Wetterdaten: Sonntag, 22.12.2013
Datum Zeit Temperatur Luftfeuchte Luftdruck Regen Wind Richtung Richtung Taupunkt Windchill Windben
22.12.2013 00:00 -2,8 C 95 % 1026,9 hPa 0,0 l/m 0,0 km/h (0 Bft) S 180 -3,5 C 3,7 C 0,0 km/h (0 Bft)
22.12.2013 00:05 -2,6 C 95 % 1026,9 hPa 0,0 l/m 0,0 km/h (0 Bft) S 180 -3,3 C 3,7 C 0,0 km/h (0 Bft)
22.12.2013 00:10 -2,3 C 95 % 1026,9 hPa 0,0 l/m 0,0 km/h (0 Bft) S 180 -3,0 C 3,7 C 0,0 km/h (0 Bft)
22.12.2013 00:15 -2,2 C 95 % 1026,9 hPa 0,0 l/m 0,0 km/h (0 Bft) S 180 -2,9 C 3,7 C 0,0 km/h (0 Bft)
22.12.2013 00:20 -2,1 C 95 % 1026,6 hPa 0,0 l/m 0,0 km/h (0 Bft) S 180 -2,8 C 3,7 C 0,0 km/h (0 Bft)
22.12.2013 00:25 -2,2 C 95 % 1026,6 hPa 0,0 l/m 0,0 km/h (0 Bft) S 180 -2,9 C 3,7 C 0,0 km/h (0 Bft)
22.12.2013 00:30 -2,3 C 95 % 1026,6 hPa 0,0 l/m 0,0 km/h (0 Bft) S 180 -3,0 C 3,7 C 0,0 km/h (0 Bft)
22.12.2013 00:35 -2,2 C 95 % 1026,6 hPa 0,0 l/m 0,0 km/h (0 Bft) S 180 -2,9 C 3,7 C 0,0 km/h (0 Bft)
22.12.2013 00:40 -2,3 C 95 % 1026,4 hPa 0,0 l/m 0,0 km/h (0 Bft) S 180 -3,0 C 3,7 C 0,0 km/h (0 Bft)
22.12.2013 00:45 -1,9 C 95 % 1026,4 hPa 0,0 l/m 0,0 km/h (0 Bft) S 180 -2,6 C 3,7 C 0,0 km/h (0 Bft)
22.12.2013 00:50 -1,9 C 95 % 1026,4 hPa 0,0 l/m 0,0 km/h (0 Bft) S 180 -2,6 C 3,7 C 0,0 km/h (0 Bft)
22.12.2013 00:55 -1,7 C 95 % 1026,4 hPa 0,0 l/m 0,0 km/h (0 Bft) S 180 -2,4 C 3,7 C 0,0 km/h (0 Bft)
22.12.2013 01:00 -1,8 C 95 % 1026,2 hPa 0,0 l/m 0,0 km/h (0 Bft) S 180 -2,5 C 3,7 C 0,0 km/h (0 Bft)
22.12.2013 01:05 -1,6 C 95 % 1026,2 hPa 0,0 l/m 0,0 km/h (0 Bft) S 180 -2,3 C 3,7 C 0,0 km/h (0 Bft)
22.12.2013 01:10 -1,8 C 95 % 1026,2 hPa 0,0 l/m 0,0 km/h (0 Bft) S 180 -2,5 C 3,7 C 0,0 km/h (0 Bft)
22.12.2013 01:15 -1,9 C 95 % 1026,2 hPa 0,0 l/m 0,0 km/h (0 Bft) S 180 -2,6 C 3,7 C 0,0 km/h (0 Bft)
22.12.2013 01:20 -1,8 C 95 % 1026,1 hPa 0,0 l/m 0,0 km/h (0 Bft) S 180 -2,5 C 3,7 C 0,0 km/h (0 Bft)
22.12.2013 01:25 -1,5 C 95 % 1026,1 hPa 0,0 l/m 0,0 km/h (0 Bft) S 180 -2,2 C 3,7 C 0,0 km/h (0 Bft)
22.12.2013 01:30 -1,7 C 95 % 1026,1 hPa 0,0 l/m 0,0 km/h (0 Bft) S 180 -2,4 C 3,7 C 0,0 km/h (0 Bft)
22.12.2013 01:35 -1,6 C 95 % 1026,1 hPa 0,0 l/m 0,0 km/h (0 Bft) S 180 -2,3 C 3,7 C 0,0 km/h (0 Bft)
22.12.2013 01:40 -1,5 C 95 % 1025,9 hPa 0,0 l/m 0,0 km/h (0 Bft) S 180 -2,2 C 3,7 C 0,0 km/h (0 Bft)
22.12.2013 01:45 -1,3 C 95 % 1025,9 hPa 0,0 l/m 0,0 km/h (0 Bft) S 180 -2,0 C 3,7 C 0,0 km/h (0 Bft)
22.12.2013 01:50 -1,5 C 95 % 1025,9 hPa 0,0 l/m 0,0 km/h (0 Bft) S 180 -2,2 C 3,7 C 0,0 km/h (0 Bft)
22.12.2013 01:55 -1,5 C 95 % 1025,9 hPa 0,0 l/m 0,0 km/h (0 Bft) S 180 -2,2 C 3,7 C 0,0 km/h (0 Bft)
22.12.2013 02:00 -1,7 C 95 % 1025,9 hPa 0,0 l/m 0,0 km/h (0 Bft) S 180 -2,4 C 3,7 C 0,0 km/h (0 Bft)
22.12.2013 02:05 -1,3 C 95 % 1025,9 hPa 0,0 l/m 0,0 km/h (0 Bft) S 180 -2,0 C 3,7 C 0,0 km/h (0 Bft)
22.12.2013 02:10 -1,9 C 95 % 1025,9 hPa 0,0 l/m 0,0 km/h (0 Bft) S 180 -2,6 C 3,7 C 0,0 km/h (0 Bft)
22.12.2013 02:15 -1,8 C 95 % 1025,9 hPa 0,0 l/m 0,0 km/h (0 Bft) S 180 -2,5 C 3,7 C 0,0 km/h (0 Bft)
22.12.2013 02:20 -1,9 C 95 % 1025,7 hPa 0,0 l/m 0,0 km/h (0 Bft) S 180 -2,6 C 3,7 C 0,0 km/h (0 Bft)
22.12.2013 02:25 -2,0 C 95 % 1025,7 hPa 0,0 l/m 0,0 km/h (0 Bft) S 180 -2,7 C 3,7 C 0,0 km/h (0 Bft)
22.12.2013 02:30 -2,2 C 95 % 1025,7 hPa 0,0 l/m 0,0 km/h (0 Bft) S 180 -2,9 C 3,7 C 0,0 km/h (0 Bft)
22.12.2013 02:35 -2,2 C 95 % 1025,7 hPa 0,0 l/m 0,0 km/h (0 Bft) S 180 -2,9 C 3,7 C 0,0 km/h (0 Bft)
22.12.2013 02:40 -2,1 C 95 % 1025,8 hPa 0,0 l/m 0,0 km/h (0 Bft) S 180 -2,8 C 3,7 C 0,0 km/h (0 Bft)
22.12.2013 02:45 -2,0 C 95 % 1025,8 hPa 0,0 l/m 0,0 km/h (0 Bft) S 180 -2,7 C 3,7 C 0,0 km/h (0 Bft)
22.12.2013 02:50 -2,0 C 95 % 1025,8 hPa 0,0 l/m 0,0 km/h (0 Bft) S 180 -2,7 C 3,7 C 0,0 km/h (0 Bft)
22.12.2013 02:55 -2,1 C 95 % 1025,8 hPa 0,0 l/m 0,0 km/h (0 Bft) S 180 -2,8 C 3,7 C 0,0 km/h (0 Bft)
22.12.2013 03:00 -2,1 C 95 % 1025,5 hPa 0,0 l/m 0,0 km/h (0 Bft) S 180 -2,8 C 3,7 C 0,0 km/h (0 Bft)
22.12.2013 03:05 -2,2 C 95 % 1025,5 hPa 0,0 l/m 0,0 km/h (0 Bft) S 180 -2,9 C 3,7 C 0,0 km/h (0 Bft)
22.12.2013 03:10 -2,0 C 95 % 1025,5 hPa 0,0 l/m 0,0 km/h (0 Bft) S 180 -2,7 C 3,7 C 0,0 km/h (0 Bft)
22.12.2013 03:15 -2,1 C 95 % 1025,5 hPa 0,0 l/m 0,0 km/h (0 Bft) S 180 -2,8 C 3,7 C 0,0 km/h (0 Bft)
22.12.2013 03:20 -2,2 C 95 % 1025,6 hPa 0,0 l/m 0,0 km/h (0 Bft) S 180 -2,9 C 3,7 C 0,0 km/h (0 Bft)
22.12.2013 03:25 -2,1 C 95 % 1025,6 hPa 0,0 l/m 0,0 km/h (0 Bft) S 180 -2,8 C 3,7 C 0,0 km/h (0 Bft)
22.12.2013 03:28 -2,0 C 95 % 1025,6 hPa 0,0 l/m 0,0 km/h (0 Bft) S 180 -2,7 C 3,7 C 0,0 km/h (0 Bft)
22.12.2013 03:30 -2,0 C 95 % 1025,6 hPa 0,0 l/m 0,0 km/h (0 Bft) S 180 -2,7 C 3,7 C 0,0 km/h (0 Bft)
22.12.2013 03:35 -1,8 C 95 % 1025,6 hPa 0,0 l/m 0,0 km/h (0 Bft) S 180 -2,5 C 3,7 C 0,0 km/h (0 Bft)
22.12.2013 03:40 -1,8 C 95 % 1025,8 hPa 0,0 l/m 0,0 km/h (0 Bft) S 180 -2,5 C 3,7 C 0,0 km/h (0 Bft)
22.12.2013 03:45 -1,3 C 95 % 1025,8 hPa 0,0 l/m 0,0 km/h (0 Bft) S 180 -2,0 C 3,7 C 0,0 km/h (0 Bft)
22.12.2013 03:50 -0,2 C 95 % 1025,8 hPa 0,0 l/m 0,0 km/h (0 Bft) S 180 -0,9 C 3,7 C 0,0 km/h (0 Bft)
22.12.2013 03:55 -0,1 C 95 % 1025,8 hPa 0,0 l/m 0,0 km/h (0 Bft) S 180 -0,8 C 3,7 C 0,0 km/h (0 Bft)
22.12.2013 04:00 -0,1 C 96 % 1025,8 hPa 0,0 l/m 0,0 km/h (0 Bft) S 180 -0,7 C 3,7 C 0,0 km/h (0 Bft)
22.12.2013 04:05 0,0 C 96 % 1025,8 hPa 0,0 l/m 0,0 km/h (0 Bft) S 180 -0,6 C 3,7 C 0,0 km/h (0 Bft)
22.12.2013 04:10 0,2 C 96 % 1025,8 hPa 0,0 l/m 0,0 km/h (0 Bft) S 180 -0,4 C 3,7 C 0,0 km/h (0 Bft)
22.12.2013 04:15 0,1 C 96 % 1025,8 hPa 0,0 l/m 0,0 km/h (0 Bft) S 180 -0,5 C 3,7 C 0,0 km/h (0 Bft)
22.12.2013 04:20 -0,1 C 96 % 1025,7 hPa 0,0 l/m 0,0 km/h (0 Bft) S 180 -0,7 C 3,7 C 0,0 km/h (0 Bft)
22.12.2013 04:25 -0,5 C 96 % 1025,7 hPa 0,0 l/m 0,0 km/h (0 Bft) S 180 -1,1 C 3,7 C 0,0 km/h (0 Bft)
22.12.2013 04:30 -0,1 C 96 % 1025,7 hPa 0,0 l/m 0,0 km/h (0 Bft) S 180 -0,7 C 3,7 C 0,0 km/h (0 Bft)
22.12.2013 04:35 0,1 C 96 % 1025,7 hPa 0,0 l/m 0,0 km/h (0 Bft) S 180 -0,5 C 3,7 C 0,0 km/h (0 Bft)
22.12.2013 04:40 -0,1 C 96 % 1025,7 hPa 0,0 l/m 0,0 km/h (0 Bft) S 180 -0,7 C 3,7 C 0,0 km/h (0 Bft)
22.12.2013 04:45 0,3 C 96 % 1025,7 hPa 0,0 l/m 0,0 km/h (0 Bft) S 180 -0,3 C 3,7 C 0,0 km/h (0 Bft)
22.12.2013 04:50 0,3 C 96 % 1025,7 hPa 0,0 l/m 0,0 km/h (0 Bft) S 180 -0,3 C 3,7 C 0,0 km/h (0 Bft)
22.12.2013 04:55 0,3 C 96 % 1025,7 hPa 0,0 l/m 0,0 km/h (0 Bft) S 180 -0,3 C 3,7 C 0,0 km/h (0 Bft)
22.12.2013 05:00 0,2 C 96 % 1025,3 hPa 0,0 l/m 0,0 km/h (0 Bft) S 180 -0,4 C 3,7 C 0,0 km/h (0 Bft)
22.12.2013 05:05 0,2 C 96 % 1025,3 hPa 0,0 l/m 0,0 km/h (0 Bft) S 180 -0,4 C 3,7 C 0,0 km/h (0 Bft)
22.12.2013 05:10 0,1 C 96 % 1025,3 hPa 0,0 l/m 0,0 km/h (0 Bft) S 180 -0,5 C 3,7 C 0,0 km/h (0 Bft)
22.12.2013 05:15 0,2 C 96 % 1025,3 hPa 0,0 l/m 0,0 km/h (0 Bft) S 180 -0,4 C 3,7 C 0,0 km/h (0 Bft)
22.12.2013 05:20 0,4 C 96 % 1025,5 hPa 0,0 l/m 0,0 km/h (0 Bft) S 180 -0,2 C 3,7 C 0,0 km/h (0 Bft)
22.12.2013 05:25 0,3 C 96 % 1025,5 hPa 0,0 l/m 0,0 km/h (0 Bft) S 180 -0,3 C 3,7 C 0,0 km/h (0 Bft)
22.12.2013 05:30 0,0 C 96 % 1025,5 hPa 0,0 l/m 0,0 km/h (0 Bft) S 180 -0,6 C 3,7 C 0,0 km/h (0 Bft)
22.12.2013 05:35 0,0 C 96 % 1025,5 hPa 0,0 l/m 0,0 km/h (0 Bft) S 180 -0,6 C 3,7 C 0,0 km/h (0 Bft)
22.12.2013 05:40 -0,2 C 96 % 1025,5 hPa 0,0 l/m 0,0 km/h (0 Bft) S 180 -0,8 C 3,7 C 0,0 km/h (0 Bft)
22.12.2013 05:45 0,0 C 96 % 1025,5 hPa 0,0 l/m 0,0 km/h (0 Bft) S 180 -0,6 C 3,7 C 0,0 km/h (0 Bft)
22.12.2013 05:50 0,0 C 96 % 1025,5 hPa 0,0 l/m 0,0 km/h (0 Bft) S 180 -0,6 C 3,7 C 0,0 km/h (0 Bft)
22.12.2013 05:55 0,1 C 96 % 1025,5 hPa 0,0 l/m 0,0 km/h (0 Bft) S 180 -0,5 C 3,7 C 0,0 km/h (0 Bft)
22.12.2013 06:00 0,2 C 96 % 1025,5 hPa 0,0 l/m 0,0 km/h (0 Bft) S 180 -0,4 C 3,7 C 0,0 km/h (0 Bft)
22.12.2013 06:05 0,2 C 96 % 1025,5 hPa 0,0 l/m 0,0 km/h (0 Bft) S 180 -0,4 C 3,7 C 0,0 km/h (0 Bft)
22.12.2013 06:10 0,0 C 96 % 1025,5 hPa 0,0 l/m 0,0 km/h (0 Bft) S 180 -0,6 C 3,7 C 0,0 km/h (0 Bft)
22.12.2013 06:15 0,2 C 96 % 1025,5 hPa 0,0 l/m 0,0 km/h (0 Bft) S 180 -0,4 C 3,7 C 0,0 km/h (0 Bft)
22.12.2013 06:20 0,3 C 96 % 1025,1 hPa 0,0 l/m 0,0 km/h (0 Bft) S 180 -0,3 C 3,7 C 0,0 km/h (0 Bft)
22.12.2013 06:25 0,2 C 96 % 1025,1 hPa 0,0 l/m 0,0 km/h (0 Bft) S 180 -0,4 C 3,7 C 0,0 km/h (0 Bft)
22.12.2013 06:30 0,1 C 96 % 1025,1 hPa 0,0 l/m 0,0 km/h (0 Bft) S 180 -0,5 C 3,7 C 0,0 km/h (0 Bft)
22.12.2013 06:35 0,1 C 96 % 1025,1 hPa 0,0 l/m 0,0 km/h (0 Bft) S 180 -0,5 C 3,7 C 0,0 km/h (0 Bft)
22.12.2013 06:40 0,0 C 96 % 1025,3 hPa 0,0 l/m 0,0 km/h (0 Bft) S 180 -0,6 C 3,7 C 0,0 km/h (0 Bft)
22.12.2013 06:45 0,1 C 96 % 1025,3 hPa 0,0 l/m 0,0 km/h (0 Bft) S 180 -0,5 C 3,7 C 0,0 km/h (0 Bft)
22.12.2013 06:50 0,4 C 96 % 1025,3 hPa 0,0 l/m 0,0 km/h (0 Bft) S 180 -0,2 C 3,7 C 0,0 km/h (0 Bft)
22.12.2013 06:55 0,3 C 96 % 1025,3 hPa 0,0 l/m 0,0 km/h (0 Bft) S 180 -0,3 C 3,7 C 0,0 km/h (0 Bft)
22.12.2013 07:00 0,3 C 96 % 1025,2 hPa 0,0 l/m 0,0 km/h (0 Bft) S 180 -0,3 C 3,7 C 0,0 km/h (0 Bft)
22.12.2013 07:05 0,3 C 96 % 1025,2 hPa 0,0 l/m 0,0 km/h (0 Bft) S 180 -0,3 C 3,7 C 0,0 km/h (0 Bft)
22.12.2013 07:10 0,3 C 96 % 1025,2 hPa 0,0 l/m 0,0 km/h (0 Bft) S 180 -0,3 C 3,7 C 0,0 km/h (0 Bft)
22.12.2013 07:15 0,3 C 96 % 1025,2 hPa 0,0 l/m 0,0 km/h (0 Bft) S 180 -0,3 C 3,7 C 0,0 km/h (0 Bft)
22.12.2013 07:20 0,3 C 96 % 1025,6 hPa 0,0 l/m 0,0 km/h (0 Bft) S 180 -0,3 C 3,7 C 0,0 km/h (0 Bft)
22.12.2013 07:25 0,7 C 96 % 1025,6 hPa 0,0 l/m 0,0 km/h (0 Bft) S 180 0,1 C 3,7 C 0,0 km/h (0 Bft)
22.12.2013 07:30 0,7 C 96 % 1025,6 hPa 0,0 l/m 0,0 km/h (0 Bft) S 180 0,1 C 3,7 C 0,0 km/h (0 Bft)
22.12.2013 07:35 1,9 C 96 % 1025,6 hPa 0,0 l/m 0,0 km/h (0 Bft) S 180 1,3 C 3,7 C 0,0 km/h (0 Bft)
22.12.2013 07:40 2,7 C 96 % 1025,1 hPa 0,0 l/m 0,0 km/h (0 Bft) S 180 2,1 C 3,7 C 0,0 km/h (0 Bft)
22.12.2013 07:45 1,8 C 96 % 1025,1 hPa 0,0 l/m 0,0 km/h (0 Bft) S 180 1,2 C 3,7 C 0,0 km/h (0 Bft)
22.12.2013 07:50 1,5 C 96 % 1025,1 hPa 0,0 l/m 0,0 km/h (0 Bft) S 180 0,9 C 3,7 C 0,0 km/h (0 Bft)
22.12.2013 07:55 2,0 C 96 % 1025,1 hPa 0,0 l/m 0,0 km/h (0 Bft) S 180 1,4 C 3,7 C 0,0 km/h (0 Bft)
22.12.2013 08:00 1,3 C 96 % 1025,1 hPa 0,0 l/m 0,0 km/h (0 Bft) S 180 0,7 C 3,7 C 0,0 km/h (0 Bft)
22.12.2013 08:05 1,8 C 96 % 1025,1 hPa 0,0 l/m 0,0 km/h (0 Bft) S 180 1,2 C 3,7 C 0,0 km/h (0 Bft)
22.12.2013 08:10 2,4 C 96 % 1025,1 hPa 0,0 l/m 0,0 km/h (0 Bft) S 180 1,8 C 3,7 C 0,0 km/h (0 Bft)
22.12.2013 08:15 1,9 C 96 % 1025,1 hPa 0,0 l/m 0,0 km/h (0 Bft) S 180 1,3 C 3,7 C 0,0 km/h (0 Bft)
22.12.2013 08:20 1,7 C 96 % 1025,1 hPa 0,0 l/m 0,0 km/h (0 Bft) S 180 1,1 C 3,7 C 0,0 km/h (0 Bft)
22.12.2013 08:25 1,5 C 96 % 1025,1 hPa 0,0 l/m 0,0 km/h (0 Bft) S 180 0,9 C 3,7 C 0,0 km/h (0 Bft)
22.12.2013 08:28 1,4 C 96 % 1025,1 hPa 0,0 l/m 0,0 km/h (0 Bft) S 180 0,8 C 3,7 C 0,0 km/h (0 Bft)
22.12.2013 08:30 1,4 C 96 % 1025,1 hPa 0,0 l/m 0,0 km/h (0 Bft) S 180 0,8 C 3,7 C 0,0 km/h (0 Bft)
22.12.2013 08:35 1,4 C 96 % 1025,1 hPa 0,0 l/m 0,0 km/h (0 Bft) S 180 0,8 C 3,7 C 0,0 km/h (0 Bft)
22.12.2013 08:40 1,7 C 96 % 1025,5 hPa 0,0 l/m 0,0 km/h (0 Bft) S 180 1,1 C 3,7 C 0,0 km/h (0 Bft)
22.12.2013 08:45 2,1 C 96 % 1025,5 hPa 0,0 l/m 0,0 km/h (0 Bft) S 180 1,5 C 3,7 C 0,0 km/h (0 Bft)
22.12.2013 08:50 2,7 C 96 % 1025,5 hPa 0,0 l/m 0,0 km/h (0 Bft) S 180 2,1 C 3,7 C 0,0 km/h (0 Bft)
22.12.2013 08:55 3,0 C 95 % 1025,5 hPa 0,0 l/m 0,0 km/h (0 Bft) S 180 2,3 C 3,7 C 0,0 km/h (0 Bft)
22.12.2013 09:00 2,8 C 96 % 1025,5 hPa 0,0 l/m 0,0 km/h (0 Bft) S 180 2,2 C 3,7 C 0,0 km/h (0 Bft)
22.12.2013 09:05 2,8 C 95 % 1025,5 hPa 0,0 l/m 0,0 km/h (0 Bft) S 180 2,1 C 3,7 C 0,0 km/h (0 Bft)
22.12.2013 09:10 2,6 C 95 % 1025,5 hPa 0,0 l/m 0,0 km/h (0 Bft) S 180 1,9 C 3,7 C 0,0 km/h (0 Bft)
22.12.2013 09:15 3,1 C 94 % 1025,5 hPa 0,0 l/m 0,0 km/h (0 Bft) S 180 2,2 C 3,7 C 0,0 km/h (0 Bft)
22.12.2013 09:20 3,1 C 94 % 1025,7 hPa 0,0 l/m 0,0 km/h (0 Bft) S 180 2,2 C 3,7 C 0,0 km/h (0 Bft)
22.12.2013 09:25 3,7 C 93 % 1025,7 hPa 0,0 l/m 0,0 km/h (0 Bft) S 180 2,7 C 3,7 C 0,0 km/h (0 Bft)
22.12.2013 09:30 4,0 C 93 % 1025,7 hPa 0,0 l/m 0,0 km/h (0 Bft) S 180 3,0 C 3,7 C 0,0 km/h (0 Bft)
22.12.2013 09:35 4,1 C 93 % 1025,7 hPa 0,0 l/m 0,0 km/h (0 Bft) S 180 3,1 C 3,7 C 0,0 km/h (0 Bft)
22.12.2013 09:40 4,1 C 92 % 1025,9 hPa 0,0 l/m 0,0 km/h (0 Bft) S 180 2,9 C 3,7 C 0,0 km/h (0 Bft)
22.12.2013 09:45 3,8 C 92 % 1025,9 hPa 0,0 l/m 0,0 km/h (0 Bft) S 180 2,6 C 3,7 C 0,0 km/h (0 Bft)
22.12.2013 09:50 3,8 C 91 % 1025,9 hPa 0,0 l/m 0,0 km/h (0 Bft) S 180 2,5 C 3,7 C 0,0 km/h (0 Bft)
22.12.2013 09:55 3,9 C 91 % 1025,9 hPa 0,0 l/m 0,0 km/h (0 Bft) S 180 2,6 C 3,7 C 0,0 km/h (0 Bft)
22.12.2013 10:00 4,2 C 91 % 1026,2 hPa 0,0 l/m 0,0 km/h (0 Bft) S 180 2,9 C 3,7 C 0,0 km/h (0 Bft)
22.12.2013 10:05 4,2 C 89 % 1026,2 hPa 0,0 l/m 0,0 km/h (0 Bft) S 180 2,6 C 3,7 C 0,0 km/h (0 Bft)
22.12.2013 10:10 4,7 C 89 % 1026,2 hPa 0,0 l/m 0,0 km/h (0 Bft) S 180 3,0 C 3,7 C 0,0 km/h (0 Bft)
22.12.2013 10:15 4,7 C 89 % 1026,2 hPa 0,0 l/m 0,0 km/h (0 Bft) S 180 3,0 C 3,7 C 0,0 km/h (0 Bft)
22.12.2013 10:20 4,9 C 90 % 1026,4 hPa 0,0 l/m 0,0 km/h (0 Bft) S 180 3,4 C 3,7 C 0,0 km/h (0 Bft)
22.12.2013 10:25 5,0 C 89 % 1026,4 hPa 0,0 l/m 0,0 km/h (0 Bft) S 180 3,3 C 3,7 C 0,0 km/h (0 Bft)
22.12.2013 10:30 4,9 C 89 % 1026,4 hPa 0,0 l/m 0,0 km/h (0 Bft) S 180 3,2 C 3,7 C 0,0 km/h (0 Bft)
22.12.2013 10:35 4,9 C 89 % 1026,4 hPa 0,0 l/m 0,0 km/h (0 Bft) S 180 3,2 C 3,7 C 0,0 km/h (0 Bft)
22.12.2013 10:40 5,0 C 88 % 1026,2 hPa 0,0 l/m 0,0 km/h (0 Bft) S 180 3,2 C 3,7 C 0,0 km/h (0 Bft)
22.12.2013 10:45 4,9 C 88 % 1026,2 hPa 0,0 l/m 0,0 km/h (0 Bft) S 180 3,1 C 3,7 C 0,0 km/h (0 Bft)
22.12.2013 10:50 5,0 C 88 % 1026,2 hPa 0,0 l/m 0,0 km/h (0 Bft) S 180 3,2 C 3,7 C 0,0 km/h (0 Bft)
22.12.2013 10:55 5,1 C 88 % 1026,2 hPa 0,0 l/m 0,0 km/h (0 Bft) S 180 3,3 C 3,7 C 0,0 km/h (0 Bft)
22.12.2013 11:00 5,2 C 88 % 1026,2 hPa 0,0 l/m 0,0 km/h (0 Bft) S 180 3,4 C 3,7 C 0,0 km/h (0 Bft)
22.12.2013 11:05 5,0 C 88 % 1026,2 hPa 0,0 l/m 0,0 km/h (0 Bft) S 180 3,2 C 3,7 C 0,0 km/h (0 Bft)
22.12.2013 11:10 5,0 C 88 % 1026,2 hPa 0,0 l/m 0,0 km/h (0 Bft) S 180 3,2 C 3,7 C 0,0 km/h (0 Bft)
22.12.2013 11:15 5,0 C 88 % 1026,2 hPa 0,0 l/m 0,0 km/h (0 Bft) S 180 3,2 C 3,7 C 0,0 km/h (0 Bft)
22.12.2013 11:20 5,1 C 88 % 1026,2 hPa 0,0 l/m 0,0 km/h (0 Bft) S 180 3,3 C 3,7 C 0,0 km/h (0 Bft)
22.12.2013 11:25 5,5 C 88 % 1026,2 hPa 0,0 l/m 0,0 km/h (0 Bft) S 180 3,7 C 3,7 C 0,0 km/h (0 Bft)
22.12.2013 11:30 5,4 C 87 % 1026,2 hPa 0,0 l/m 0,0 km/h (0 Bft) S 180 3,4 C 3,7 C 0,0 km/h (0 Bft)
22.12.2013 11:35 5,7 C 88 % 1026,2 hPa 0,0 l/m 0,0 km/h (0 Bft) S 180 3,9 C 3,7 C 0,0 km/h (0 Bft)
22.12.2013 11:40 6,1 C 88 % 1025,9 hPa 0,0 l/m 0,0 km/h (0 Bft) S 180 4,3 C 3,7 C 0,0 km/h (0 Bft)
22.12.2013 11:45 6,4 C 86 % 1025,9 hPa 0,0 l/m 0,0 km/h (0 Bft) S 180 4,2 C 3,7 C 0,0 km/h (0 Bft)
22.12.2013 11:50 6,3 C 85 % 1025,9 hPa 0,0 l/m 0,0 km/h (0 Bft) S 180 4,0 C 3,7 C 0,0 km/h (0 Bft)
22.12.2013 11:55 6,5 C 86 % 1025,9 hPa 0,0 l/m 0,0 km/h (0 Bft) S 180 4,3 C 3,7 C 0,0 km/h (0 Bft)
22.12.2013 12:00 6,9 C 87 % 1025,6 hPa 0,0 l/m 0,0 km/h (0 Bft) S 180 4,9 C 3,7 C 0,0 km/h (0 Bft)
22.12.2013 12:05 7,3 C 87 % 1025,6 hPa 0,0 l/m 0,0 km/h (0 Bft) S 180 5,3 C 3,7 C 0,0 km/h (0 Bft)
22.12.2013 12:10 8,0 C 87 % 1025,6 hPa 0,0 l/m 0,0 km/h (0 Bft) S 180 6,0 C 3,7 C 0,0 km/h (0 Bft)
22.12.2013 12:15 8,4 C 88 % 1025,6 hPa 0,0 l/m 0,0 km/h (0 Bft) S 180 6,5 C 3,7 C 0,0 km/h (0 Bft)
22.12.2013 12:20 8,6 C 88 % 1025,4 hPa 0,0 l/m 0,0 km/h (0 Bft) S 180 6,7 C 3,7 C 0,0 km/h (0 Bft)
22.12.2013 12:25 8,6 C 88 % 1025,4 hPa 0,0 l/m 0,0 km/h (0 Bft) S 180 6,7 C 3,7 C 0,0 km/h (0 Bft)
22.12.2013 12:30 8,5 C 86 % 1025,4 hPa 0,0 l/m 0,0 km/h (0 Bft) S 180 6,3 C 3,7 C 0,0 km/h (0 Bft)
22.12.2013 12:35 8,5 C 86 % 1025,4 hPa 0,0 l/m 0,0 km/h (0 Bft) S 180 6,3 C 3,7 C 0,0 km/h (0 Bft)
22.12.2013 12:40 8,4 C 86 % 1025,1 hPa 0,0 l/m 0,0 km/h (0 Bft) S 180 6,2 C 3,7 C 0,0 km/h (0 Bft)
22.12.2013 12:45 8,4 C 86 % 1025,1 hPa 0,0 l/m 0,0 km/h (0 Bft) S 180 6,2 C 3,7 C 0,0 km/h (0 Bft)
22.12.2013 12:50 8,3 C 86 % 1025,1 hPa 0,0 l/m 0,0 km/h (0 Bft) S 180 6,1 C 3,7 C 0,0 km/h (0 Bft)
22.12.2013 12:55 8,5 C 86 % 1025,1 hPa 0,0 l/m 0,0 km/h (0 Bft) S 180 6,3 C 3,7 C 0,0 km/h (0 Bft)
22.12.2013 13:00 8,6 C 85 % 1024,9 hPa 0,0 l/m 0,0 km/h (0 Bft) S 180 6,2 C 3,7 C 0,0 km/h (0 Bft)
22.12.2013 13:05 8,6 C 83 % 1024,9 hPa 0,0 l/m 0,0 km/h (0 Bft) S 180 5,9 C 3,7 C 0,0 km/h (0 Bft)
22.12.2013 13:10 8,4 C 78 % 1024,9 hPa 0,0 l/m 0,0 km/h (0 Bft) S 180 4,8 C 3,7 C 0,0 km/h (0 Bft)
22.12.2013 13:15 8,3 C 75 % 1024,9 hPa 0,0 l/m 0,0 km/h (0 Bft) S 180 4,1 C 3,7 C 0,0 km/h (0 Bft)
22.12.2013 13:20 8,5 C 78 % 1024,9 hPa 0,0 l/m 0,0 km/h (0 Bft) S 180 4,9 C 3,7 C 0,0 km/h (0 Bft)
22.12.2013 13:25 8,7 C 77 % 1024,9 hPa 0,0 l/m 0,0 km/h (0 Bft) S 180 4,9 C 3,7 C 0,0 km/h (0 Bft)
22.12.2013 13:28 8,6 C 74 % 1024,9 hPa 0,0 l/m 0,0 km/h (0 Bft) S 180 4,2 C 3,7 C 0,0 km/h (0 Bft)
22.12.2013 13:30 8,6 C 74 % 1024,9 hPa 0,0 l/m 0,0 km/h (0 Bft) S 180 4,2 C 3,7 C 0,0 km/h (0 Bft)
22.12.2013 13:35 8,7 C 73 % 1024,9 hPa 0,0 l/m 0,0 km/h (0 Bft) S 180 4,1 C 3,7 C 0,0 km/h (0 Bft)
22.12.2013 13:40 8,9 C 73 % 1024,7 hPa 0,0 l/m 0,0 km/h (0 Bft) S 180 4,3 C 3,7 C 0,0 km/h (0 Bft)
22.12.2013 13:45 8,9 C 72 % 1024,7 hPa 0,0 l/m 0,0 km/h (0 Bft) S 180 4,1 C 3,7 C 0,0 km/h (0 Bft)
22.12.2013 13:50 8,4 C 74 % 1024,7 hPa 0,0 l/m 0,0 km/h (0 Bft) S 180 4,0 C 3,7 C 0,0 km/h (0 Bft)
22.12.2013 13:55 8,3 C 74 % 1024,7 hPa 0,0 l/m 0,0 km/h (0 Bft) S 180 3,9 C 3,7 C 0,0 km/h (0 Bft)
22.12.2013 14:00 8,0 C 74 % 1024,7 hPa 0,0 l/m 0,0 km/h (0 Bft) S 180 3,7 C 3,7 C 0,0 km/h (0 Bft)
22.12.2013 14:05 8,3 C 74 % 1024,7 hPa 0,0 l/m 0,0 km/h (0 Bft) S 180 3,9 C 3,7 C 0,0 km/h (0 Bft)
22.12.2013 14:10 8,4 C 69 % 1024,7 hPa 0,0 l/m 0,0 km/h (0 Bft) S 180 3,0 C 3,7 C 0,0 km/h (0 Bft)
22.12.2013 14:15 8,0 C 66 % 1024,7 hPa 0,0 l/m 0,0 km/h (0 Bft) S 180 2,0 C 3,7 C 0,0 km/h (0 Bft)
22.12.2013 14:20 7,1 C 68 % 1024,3 hPa 0,0 l/m 0,0 km/h (0 Bft) S 180 1,6 C 3,7 C 0,0 km/h (0 Bft)
22.12.2013 14:25 7,1 C 70 % 1024,3 hPa 0,0 l/m 0,0 km/h (0 Bft) S 180 2,0 C 3,7 C 0,0 km/h (0 Bft)
22.12.2013 14:27 7,6 C 70 % 1024,3 hPa 0,0 l/m 0,0 km/h (0 Bft) S 180 2,5 C 0,0 C 0,0 km/h (0 Bft)
22.12.2013 14:31 7,6 C 70 % 1024,3 hPa 0,0 l/m 0,0 km/h (0 Bft) S 180 2,5 C 0,0 C 0,0 km/h (0 Bft)
22.12.2013 14:34 7,8 C 70 % 1024,3 hPa 0,0 l/m 0,0 km/h (0 Bft) S 180 2,7 C 0,0 C 0,0 km/h (0 Bft)
22.12.2013 14:35 7,8 C 70 % 1024,3 hPa 0,0 l/m 0,0 km/h (0 Bft) S 180 2,7 C 0,0 C 0,0 km/h (0 Bft)
22.12.2013 14:40 8,0 C 69 % 1024,1 hPa 0,0 l/m 0,0 km/h (0 Bft) S 180 2,7 C 0,0 C 0,0 km/h (0 Bft)
22.12.2013 14:45 8,2 C 67 % 1024,1 hPa 0,0 l/m 0,0 km/h (0 Bft) S 180 2,4 C 0,0 C 0,0 km/h (0 Bft)
22.12.2013 14:50 8,0 C 65 % 1024,1 hPa 0,0 l/m 0,0 km/h (0 Bft) S 180 1,8 C 0,0 C 0,0 km/h (0 Bft)
22.12.2013 14:55 7,8 C 64 % 1024,1 hPa 0,0 l/m 0,0 km/h (0 Bft) S 180 1,4 C 0,0 C 0,0 km/h (0 Bft)
22.12.2013 15:00 6,9 C 65 % 1024,1 hPa 0,0 l/m 0,0 km/h (0 Bft) S 180 0,8 C 0,0 C 0,0 km/h (0 Bft)
22.12.2013 15:05 6,2 C 67 % 1024,1 hPa 0,0 l/m 0,0 km/h (0 Bft) S 180 0,5 C 0,0 C 0,0 km/h (0 Bft)
22.12.2013 15:10 6,6 C 69 % 1024,1 hPa 0,0 l/m 0,0 km/h (0 Bft) S 180 1,3 C 0,0 C 0,0 km/h (0 Bft)
22.12.2013 15:15 6,9 C 69 % 1024,1 hPa 0,0 l/m 0,0 km/h (0 Bft) S 180 1,6 C 0,0 C 0,0 km/h (0 Bft)
22.12.2013 15:20 6,3 C 69 % 1023,8 hPa 0,0 l/m 0,0 km/h (0 Bft) S 180 1,0 C 0,0 C 0,0 km/h (0 Bft)
22.12.2013 15:25 6,8 C 70 % 1023,8 hPa 0,0 l/m 0,0 km/h (0 Bft) S 180 1,7 C 0,0 C 0,0 km/h (0 Bft)
22.12.2013 15:30 5,9 C 70 % 1023,8 hPa 0,0 l/m 0,0 km/h (0 Bft) S 180 0,9 C 0,0 C 0,0 km/h (0 Bft)
22.12.2013 15:35 5,9 C 71 % 1023,8 hPa 0,0 l/m 0,0 km/h (0 Bft) S 180 1,1 C 0,0 C 0,0 km/h (0 Bft)
22.12.2013 15:40 6,6 C 70 % 1023,6 hPa 0,0 l/m 0,0 km/h (0 Bft) S 180 1,5 C 0,0 C 0,0 km/h (0 Bft)
22.12.2013 15:45 5,5 C 69 % 1023,6 hPa 0,0 l/m 0,0 km/h (0 Bft) S 180 0,3 C 0,0 C 0,0 km/h (0 Bft)
22.12.2013 15:50 5,6 C 71 % 1023,6 hPa 0,0 l/m 0,0 km/h (0 Bft) S 180 0,8 C 0,0 C 0,0 km/h (0 Bft)
22.12.2013 15:55 5,9 C 72 % 1023,6 hPa 0,0 l/m 0,0 km/h (0 Bft) S 180 1,2 C 0,0 C 0,0 km/h (0 Bft)
22.12.2013 16:00 6,2 C 70 % 1023,5 hPa 0,0 l/m 0,0 km/h (0 Bft) S 180 1,1 C 0,0 C 0,0 km/h (0 Bft)
22.12.2013 16:05 4,9 C 72 % 1023,5 hPa 0,0 l/m 0,0 km/h (0 Bft) S 180 0,3 C 0,0 C 0,0 km/h (0 Bft)
22.12.2013 16:10 4,4 C 73 % 1023,5 hPa 0,0 l/m 0,0 km/h (0 Bft) S 180 -0,0 C 0,0 C 0,0 km/h (0 Bft)
22.12.2013 16:15 4,7 C 75 % 1023,5 hPa 0,0 l/m 0,0 km/h (0 Bft) S 180 0,7 C 0,0 C 0,0 km/h (0 Bft)
22.12.2013 16:20 5,1 C 75 % 1023,4 hPa 0,0 l/m 0,0 km/h (0 Bft) S 180 1,0 C 0,0 C 0,0 km/h (0 Bft)
22.12.2013 16:25 4,8 C 74 % 1023,4 hPa 0,0 l/m 0,0 km/h (0 Bft) S 180 0,6 C 0,0 C 0,0 km/h (0 Bft)
22.12.2013 16:30 3,8 C 74 % 1023,4 hPa 0,0 l/m 0,0 km/h (0 Bft) S 180 -0,4 C 0,0 C 0,0 km/h (0 Bft)
22.12.2013 16:35 3,5 C 76 % 1023,4 hPa 0,0 l/m 0,0 km/h (0 Bft) S 180 -0,3 C 0,0 C 0,0 km/h (0 Bft)
22.12.2013 16:40 3,4 C 77 % 1023,4 hPa 0,0 l/m 0,0 km/h (0 Bft) S 180 -0,2 C 0,0 C 0,0 km/h (0 Bft)
22.12.2013 16:45 4,3 C 78 % 1023,4 hPa 0,0 l/m 0,0 km/h (0 Bft) S 180 0,8 C 0,0 C 0,0 km/h (0 Bft)
22.12.2013 16:50 4,3 C 78 % 1023,4 hPa 0,0 l/m 0,0 km/h (0 Bft) S 180 0,8 C 0,0 C 0,0 km/h (0 Bft)
22.12.2013 16:55 4,2 C 77 % 1023,4 hPa 0,0 l/m 0,0 km/h (0 Bft) S 180 0,5 C 0,0 C 0,0 km/h (0 Bft)
22.12.2013 17:00 3,4 C 77 % 1023,5 hPa 0,0 l/m 0,0 km/h (0 Bft) S 180 -0,2 C 0,0 C 0,0 km/h (0 Bft)
22.12.2013 17:05 4,1 C 78 % 1023,5 hPa 0,0 l/m 0,0 km/h (0 Bft) S 180 0,6 C 0,0 C 0,0 km/h (0 Bft)
22.12.2013 17:10 4,3 C 78 % 1023,5 hPa 0,0 l/m 0,0 km/h (0 Bft) S 180 0,8 C 0,0 C 0,0 km/h (0 Bft)
22.12.2013 17:15 3,7 C 78 % 1023,5 hPa 0,0 l/m 0,0 km/h (0 Bft) S 180 0,2 C 0,0 C 0,0 km/h (0 Bft)
22.12.2013 17:20 3,4 C 78 % 1023,4 hPa 0,0 l/m 0,0 km/h (0 Bft) S 180 -0,1 C 0,0 C 0,0 km/h (0 Bft)
22.12.2013 17:25 4,2 C 79 % 1023,4 hPa 0,0 l/m 0,0 km/h (0 Bft) S 180 0,9 C 0,0 C 0,0 km/h (0 Bft)
22.12.2013 17:30 4,3 C 78 % 1023,4 hPa 0,0 l/m 0,0 km/h (0 Bft) S 180 0,8 C 0,0 C 0,0 km/h (0 Bft)
22.12.2013 17:35 4,4 C 78 % 1023,4 hPa 0,0 l/m 0,0 km/h (0 Bft) S 180 0,9 C 0,0 C 0,0 km/h (0 Bft)
22.12.2013 17:40 4,5 C 77 % 1023,3 hPa 0,0 l/m 0,0 km/h (0 Bft) S 180 0,8 C 0,0 C 0,0 km/h (0 Bft)
22.12.2013 17:45 4,5 C 77 % 1023,3 hPa 0,0 l/m 0,0 km/h (0 Bft) S 180 0,8 C 0,0 C 0,0 km/h (0 Bft)
22.12.2013 17:50 3,9 C 77 % 1023,3 hPa 0,0 l/m 0,0 km/h (0 Bft) S 180 0,2 C 0,0 C 0,0 km/h (0 Bft)
22.12.2013 17:55 3,4 C 77 % 1023,3 hPa 0,0 l/m 0,0 km/h (0 Bft) S 180 -0,2 C 0,0 C 0,0 km/h (0 Bft)
22.12.2013 18:00 3,0 C 77 % 1023,5 hPa 0,0 l/m 0,0 km/h (0 Bft) S 180 -0,6 C 0,0 C 0,0 km/h (0 Bft)
22.12.2013 18:05 2,8 C 78 % 1023,5 hPa 0,0 l/m 0,0 km/h (0 Bft) S 180 -0,6 C 0,0 C 0,0 km/h (0 Bft)
22.12.2013 18:10 2,7 C 79 % 1023,5 hPa 0,0 l/m 0,0 km/h (0 Bft) S 180 -0,6 C 0,0 C 0,0 km/h (0 Bft)
22.12.2013 18:15 2,5 C 79 % 1023,5 hPa 0,0 l/m 0,0 km/h (0 Bft) S 180 -0,8 C 0,0 C 0,0 km/h (0 Bft)
22.12.2013 18:20 2,6 C 80 % 1023,6 hPa 0,0 l/m 0,0 km/h (0 Bft) S 180 -0,5 C 0,0 C 0,0 km/h (0 Bft)
22.12.2013 18:25 2,6 C 81 % 1023,6 hPa 0,0 l/m 0,0 km/h (0 Bft) S 180 -0,3 C 0,0 C 0,0 km/h (0 Bft)
22.12.2013 18:30 2,3 C 82 % 1023,6 hPa 0,0 l/m 0,0 km/h (0 Bft) S 180 -0,4 C 0,0 C 0,0 km/h (0 Bft)
22.12.2013 18:35 2,1 C 82 % 1023,6 hPa 0,0 l/m 0,0 km/h (0 Bft) S 180 -0,6 C 0,0 C 0,0 km/h (0 Bft)
22.12.2013 18:40 2,1 C 83 % 1023,4 hPa 0,0 l/m 0,0 km/h (0 Bft) S 180 -0,5 C 0,0 C 0,0 km/h (0 Bft)
22.12.2013 18:45 3,7 C 83 % 1023,4 hPa 0,0 l/m 0,0 km/h (0 Bft) S 180 1,1 C 0,0 C 0,0 km/h (0 Bft)
22.12.2013 18:50 4,2 C 79 % 1023,4 hPa 0,0 l/m 0,0 km/h (0 Bft) S 180 0,9 C 0,0 C 0,0 km/h (0 Bft)
22.12.2013 18:55 4,0 C 78 % 1023,4 hPa 0,0 l/m 0,0 km/h (0 Bft) S 180 0,5 C 0,0 C 0,0 km/h (0 Bft)
22.12.2013 19:00 3,8 C 78 % 1023,5 hPa 0,0 l/m 0,0 km/h (0 Bft) S 180 0,3 C 0,0 C 0,0 km/h (0 Bft)
22.12.2013 19:05 4,1 C 77 % 1023,5 hPa 0,0 l/m 0,0 km/h (0 Bft) S 180 0,4 C 0,0 C 0,0 km/h (0 Bft)
22.12.2013 19:10 3,9 C 77 % 1023,5 hPa 0,0 l/m 0,0 km/h (0 Bft) S 180 0,2 C 0,0 C 0,0 km/h (0 Bft)
22.12.2013 19:15 3,0 C 77 % 1023,5 hPa 0,0 l/m 0,0 km/h (0 Bft) S 180 -0,6 C 0,0 C 0,0 km/h (0 Bft)
22.12.2013 19:20 3,9 C 78 % 1023,4 hPa 0,0 l/m 0,0 km/h (0 Bft) S 180 0,4 C 0,0 C 0,0 km/h (0 Bft)
22.12.2013 19:25 3,0 C 77 % 1023,4 hPa 0,0 l/m 0,0 km/h (0 Bft) S 180 -0,6 C 0,0 C 0,0 km/h (0 Bft)
22.12.2013 19:28 2,8 C 79 % 1023,4 hPa 0,0 l/m 0,0 km/h (0 Bft) S 180 -0,5 C 0,0 C 0,0 km/h (0 Bft)
22.12.2013 19:30 2,8 C 79 % 1023,4 hPa 0,0 l/m 0,0 km/h (0 Bft) S 180 -0,5 C 0,0 C 0,0 km/h (0 Bft)
22.12.2013 19:35 3,3 C 79 % 1023,4 hPa 0,0 l/m 0,0 km/h (0 Bft) S 180 0,0 C 0,0 C 0,0 km/h (0 Bft)
22.12.2013 19:40 3,4 C 79 % 1023,8 hPa 0,0 l/m 0,0 km/h (0 Bft) S 180 0,1 C 0,0 C 0,0 km/h (0 Bft)
22.12.2013 19:45 3,3 C 78 % 1023,8 hPa 0,0 l/m 0,0 km/h (0 Bft) S 180 -0,2 C 0,0 C 0,0 km/h (0 Bft)
22.12.2013 19:50 3,4 C 79 % 1023,8 hPa 0,0 l/m 0,0 km/h (0 Bft) S 180 0,1 C 0,0 C 0,0 km/h (0 Bft)
22.12.2013 19:55 3,5 C 78 % 1023,8 hPa 0,0 l/m 0,0 km/h (0 Bft) S 180 0,0 C 0,0 C 0,0 km/h (0 Bft)
22.12.2013 20:00 3,7 C 78 % 1023,8 hPa 0,0 l/m 0,0 km/h (0 Bft) S 180 0,2 C 0,0 C 0,0 km/h (0 Bft)
22.12.2013 20:05 4,4 C 77 % 1023,8 hPa 0,0 l/m 0,0 km/h (0 Bft) S 180 0,7 C 0,0 C 0,0 km/h (0 Bft)
22.12.2013 20:10 4,2 C 76 % 1023,8 hPa 0,0 l/m 0,0 km/h (0 Bft) S 180 0,4 C 0,0 C 0,0 km/h (0 Bft)
22.12.2013 20:15 4,7 C 75 % 1023,8 hPa 0,0 l/m 0,0 km/h (0 Bft) S 180 0,7 C 0,0 C 0,0 km/h (0 Bft)
22.12.2013 20:20 4,4 C 74 % 1023,6 hPa 0,0 l/m 0,0 km/h (0 Bft) S 180 0,2 C 0,0 C 0,0 km/h (0 Bft)
22.12.2013 20:25 4,1 C 75 % 1023,6 hPa 0,0 l/m 0,0 km/h (0 Bft) S 180 0,1 C 0,0 C 0,0 km/h (0 Bft)
22.12.2013 20:30 4,4 C 74 % 1023,6 hPa 0,0 l/m 0,0 km/h (0 Bft) S 180 0,2 C 0,0 C 0,0 km/h (0 Bft)
22.12.2013 20:35 4,2 C 74 % 1023,6 hPa 0,0 l/m 0,0 km/h (0 Bft) S 180 -0,0 C 0,0 C 0,0 km/h (0 Bft)
22.12.2013 20:40 4,3 C 74 % 1023,8 hPa 0,0 l/m 0,0 km/h (0 Bft) S 180 0,1 C 0,0 C 0,0 km/h (0 Bft)
22.12.2013 20:45 4,8 C 73 % 1023,8 hPa 0,0 l/m 0,0 km/h (0 Bft) S 180 0,4 C 0,0 C 0,0 km/h (0 Bft)
22.12.2013 20:50 5,0 C 72 % 1023,8 hPa 0,0 l/m 0,0 km/h (0 Bft) S 180 0,4 C 0,0 C 0,0 km/h (0 Bft)
22.12.2013 20:55 5,0 C 72 % 1023,8 hPa 0,0 l/m 0,0 km/h (0 Bft) S 180 0,4 C 0,0 C 0,0 km/h (0 Bft)
22.12.2013 21:00 5,0 C 71 % 1023,7 hPa 0,0 l/m 0,0 km/h (0 Bft) S 180 0,2 C 0,0 C 0,0 km/h (0 Bft)
22.12.2013 21:05 5,2 C 71 % 1023,7 hPa 0,0 l/m 0,0 km/h (0 Bft) S 180 0,4 C 0,0 C 0,0 km/h (0 Bft)
22.12.2013 21:10 4,9 C 71 % 1023,7 hPa 0,0 l/m 0,0 km/h (0 Bft) S 180 0,1 C 0,0 C 0,0 km/h (0 Bft)
22.12.2013 21:15 4,6 C 72 % 1023,7 hPa 0,0 l/m 0,0 km/h (0 Bft) S 180 -0,0 C 0,0 C 0,0 km/h (0 Bft)
22.12.2013 21:20 3,8 C 72 % 1023,5 hPa 0,0 l/m 0,0 km/h (0 Bft) S 180 -0,8 C 0,0 C 0,0 km/h (0 Bft)
22.12.2013 21:25 4,0 C 74 % 1023,5 hPa 0,0 l/m 0,0 km/h (0 Bft) S 180 -0,2 C 0,0 C 0,0 km/h (0 Bft)
22.12.2013 21:30 3,4 C 75 % 1023,5 hPa 0,0 l/m 0,0 km/h (0 Bft) S 180 -0,6 C 0,0 C 0,0 km/h (0 Bft)
22.12.2013 21:35 3,6 C 76 % 1023,5 hPa 0,0 l/m 0,0 km/h (0 Bft) S 180 -0,2 C 0,0 C 0,0 km/h (0 Bft)
22.12.2013 21:40 3,4 C 76 % 1023,6 hPa 0,0 l/m 0,0 km/h (0 Bft) S 180 -0,4 C 0,0 C 0,0 km/h (0 Bft)
22.12.2013 21:45 3,5 C 76 % 1023,6 hPa 0,0 l/m 0,0 km/h (0 Bft) S 180 -0,3 C 0,0 C 0,0 km/h (0 Bft)
22.12.2013 21:50 3,4 C 77 % 1023,6 hPa 0,0 l/m 0,0 km/h (0 Bft) S 180 -0,2 C 0,0 C 0,0 km/h (0 Bft)
22.12.2013 21:55 3,0 C 76 % 1023,6 hPa 0,0 l/m 0,0 km/h (0 Bft) S 180 -0,8 C 0,0 C 0,0 km/h (0 Bft)
22.12.2013 22:00 2,6 C 77 % 1023,4 hPa 0,0 l/m 0,0 km/h (0 Bft) S 180 -1,0 C 0,0 C 0,0 km/h (0 Bft)
22.12.2013 22:05 2,3 C 78 % 1023,4 hPa 0,0 l/m 0,0 km/h (0 Bft) S 180 -1,1 C 0,0 C 0,0 km/h (0 Bft)
22.12.2013 22:10 2,1 C 78 % 1023,4 hPa 0,0 l/m 0,0 km/h (0 Bft) S 180 -1,3 C 0,0 C 0,0 km/h (0 Bft)
22.12.2013 22:15 2,0 C 78 % 1023,4 hPa 0,0 l/m 0,0 km/h (0 Bft) S 180 -1,4 C 0,0 C 0,0 km/h (0 Bft)
22.12.2013 22:20 1,9 C 79 % 1023,3 hPa 0,0 l/m 0,0 km/h (0 Bft) S 180 -1,3 C 0,0 C 0,0 km/h (0 Bft)
22.12.2013 22:25 1,8 C 79 % 1023,3 hPa 0,0 l/m 0,0 km/h (0 Bft) S 180 -1,4 C 0,0 C 0,0 km/h (0 Bft)
22.12.2013 22:30 1,5 C 80 % 1023,3 hPa 0,0 l/m 0,0 km/h (0 Bft) S 180 -1,6 C 0,0 C 0,0 km/h (0 Bft)
22.12.2013 22:35 1,4 C 82 % 1023,3 hPa 0,0 l/m 0,0 km/h (0 Bft) S 180 -1,3 C 0,0 C 0,0 km/h (0 Bft)
22.12.2013 22:40 1,1 C 82 % 1023,5 hPa 0,0 l/m 0,0 km/h (0 Bft) S 180 -1,6 C 0,0 C 0,0 km/h (0 Bft)
22.12.2013 22:45 1,0 C 83 % 1023,5 hPa 0,0 l/m 0,0 km/h (0 Bft) S 180 -1,6 C 0,0 C 0,0 km/h (0 Bft)
22.12.2013 22:50 1,1 C 84 % 1023,5 hPa 0,0 l/m 0,0 km/h (0 Bft) S 180 -1,3 C 0,0 C 0,0 km/h (0 Bft)
22.12.2013 22:55 0,8 C 84 % 1023,5 hPa 0,0 l/m 0,0 km/h (0 Bft) S 180 -1,6 C 0,0 C 0,0 km/h (0 Bft)
22.12.2013 23:00 1,4 C 85 % 1023,6 hPa 0,0 l/m 0,0 km/h (0 Bft) S 180 -0,8 C 0,0 C 0,0 km/h (0 Bft)
22.12.2013 23:05 1,5 C 85 % 1023,6 hPa 0,0 l/m 0,0 km/h (0 Bft) S 180 -0,7 C 0,0 C 0,0 km/h (0 Bft)
22.12.2013 23:10 1,9 C 85 % 1023,6 hPa 0,0 l/m 0,0 km/h (0 Bft) S 180 -0,3 C 0,0 C 0,0 km/h (0 Bft)
22.12.2013 23:15 1,5 C 85 % 1023,6 hPa 0,0 l/m 0,0 km/h (0 Bft) S 180 -0,7 C 0,0 C 0,0 km/h (0 Bft)
22.12.2013 23:20 1,9 C 85 % 1023,6 hPa 0,0 l/m 0,0 km/h (0 Bft) S 180 -0,3 C 0,0 C 0,0 km/h (0 Bft)
22.12.2013 23:25 1,8 C 85 % 1023,6 hPa 0,0 l/m 0,0 km/h (0 Bft) S 180 -0,4 C 0,0 C 0,0 km/h (0 Bft)
22.12.2013 23:30 1,9 C 85 % 1023,6 hPa 0,0 l/m 0,0 km/h (0 Bft) S 180 -0,3 C 0,0 C 0,0 km/h (0 Bft)
22.12.2013 23:35 1,9 C 85 % 1023,6 hPa 0,0 l/m 0,0 km/h (0 Bft) S 180 -0,3 C 0,0 C 0,0 km/h (0 Bft)
22.12.2013 23:40 1,5 C 84 % 1023,5 hPa 0,0 l/m 0,0 km/h (0 Bft) S 180 -0,9 C 0,0 C 0,0 km/h (0 Bft)
22.12.2013 23:45 1,4 C 84 % 1023,5 hPa 0,0 l/m 0,0 km/h (0 Bft) S 180 -1,0 C 0,0 C 0,0 km/h (0 Bft)
22.12.2013 23:50 0,9 C 84 % 1023,5 hPa 0,0 l/m 0,0 km/h (0 Bft) S 180 -1,5 C 0,0 C 0,0 km/h (0 Bft)
22.12.2013 23:55 1,3 C 85 % 1023,5 hPa 0,0 l/m 0,0 km/h (0 Bft) S 180 -0,9 C 0,0 C 0,0 km/h (0 Bft)
_ Min-Zeit 00:00 14:55 22:35 - 23:55 - - 00:00 23:55 23:55
Minimum _ -2,8 C 64 % 1023,3 hPa - 0,0 km/h (0 Bft) - - -3,5 C 0,0 C 0,0 km/h (0 Bft)
_ Max-Zeit 13:45 09:00 00:15 23:55 23:55 - - 12:25 14:25 23:55
Maximum _ 8,9 C 96 % 1026,9 hPa 0,0 l/m 0,0 km/h
S (0 Bft)
- - 6,7 C 3,7 C 0,0 km/h
S (0 Bft)
Durchschnitt _ 2,8 C 86 % 1024,8 hPa #0,0 l/m 0,0 km/h (0 Bft) - - - 0,5 C 2,2 C 0,0 km/h (0 Bft)